Dewpoint
56 56 55 55 54 54 53 53 52 51 51 52 53 53 53 54 52 48 38 35 44 46 42 34 33 33 30 29 28 20 17 14 11 36 34 43 42 44 50 50 55 57 57 59 61
56 56 56 55 54 54 54 53 52 52 51 52 53 53 54 53 49 44 44 46 48 46 35 31 27 28 24 23 24 21 18 17 17 33 38 41 41 43 46 52 53 55 59 60 60
57 56 56 55 55 55 54 53 52 52 51 52 53 54 53 52 43 38 51 49 49 52 33 32 29 25 20 21 21 19 17 18 25 38 42 40 41 45 46 46 51 54 56 58 58
57 56 55 55 55 55 54 53 53 52 52 52 52 53 52 49 25 33 52 53 50 48 35 28 26 24 20 19 21 18 17 18 22 36 41 40 44 43 45 46 54 55 56 56 56
57 56 55 55 55 55 54 53 53 52 52 52 51 52 48 34 24 48 53 53 51 39 33 28 28 29 23 19 17 16 16 17 22 38 39 41 39 38 45 54 55 56 56 55 55
58 57 56 55 55 54 54 53 53 52 52 52 52 50 46 17 41 51 48 45 39 35 29 29 29 28 26 22 21 22 24 21 27 36 39 38 38 40 47 56 54 55 55 53 52
58 57 56 55 54 54 53 53 52 52 52 52 51 48 43 16 44 44 43 37 33 33 30 32 31 27 27 24 26 26 17 26 33 35 37 36 35 39 48 53 55 55 54 52 53
58 58 57 55 54 54 53 52 52 51 52 51 50 47 31 35 44 42 39 34 30 32 29 28 29 28 27 27 25 21 15 25 29 33 35 33 34 40 48 50 51 54 55 53 54
57 58 57 55 54 53 52 52 52 52 52 52 47 46 26 38 37 41 39 32 32 28 28 30 28 26 27 24 19 17 13 20 27 29 34 30 37 41 48 49 50 51 54 55 54
55 57 57 55 54 52 51 51 51 51 49 49 46 36 32 28 33 35 39 36 32 31 28 28 26 24 25 22 16 17 16 21 21 25 31 31 38 41 45 45 48 49 52 54 54
54 56 57 55 53 52 50 47 42 45 44 29 24 23 25 35 35 32 31 34 30 28 25 26 22 21 21 23 23 22 19 18 20 21 23 27 37 41 42 44 45 47 49 51 53
52 55 56 55 52 51 49 43 41 44 37 41 42 37 38 39 36 30 29 26 27 24 27 24 21 22 25 24 23 21 19 19 21 20 19 21 34 39 41 42 44 46 47 48 51
50 53 56 54 51 50 46 45 46 47 34 35 43 42 40 41 33 29 26 24 23 24 25 23 20 24 23 22 21 21 20 20 21 18 22 24 30 38 39 39 41 44 46 46 48
50 52 55 52 49 48 47 49 49 48 30 29 40 39 39 31 26 31 26 23 21 20 22 23 24 22 21 20 22 20 23 22 21 16 17 20 21 30 36 38 38 40 43 43 45
50 51 54 51 46 49 49 48 48 48 4 19 38 36 29 25 25 25 26 22 19 19 25 21 24 23 21 19 24 21 23 23 22 23 21 23 19 21 31 36 37 36 39 43 43
50 51 53 50 49 47 48 51 52 33 8 22 33 25 22 23 25 23 25 23 22 20 24 21 26 26 22 23 24 24 22 25 25 24 17 22 22 19 29 32 36 34 37 39 43
49 50 52 51 46 51 51 51 38 28 23 26 27 23 19 21 21 24 19 19 17 17 19 23 22 27 28 23 24 25 22 17 15 16 15 27 23 21 23 27 28 27 32 40 43
47 50 52 50 50 50 53 44 32 31 30 33 26 25 20 22 22 23 21 18 19 18 19 17 17 24 28 24 23 23 21 16 12 14 15 29 21 20 27 29 31 31 31 34 43
47 50 50 52 50 48 48 37 31 32 34 22 25 23 23 23 21 22 20 18 18 19 15 19 19 30 30 31 26 21 19 23 25 30 24 21 26 22 24 30 33 33 37 39 41
45 45 47 51 50 46 43 35 35 35 37 35 22 23 20 22 21 20 20 20 18 19 20 23 19 30 30 30 29 23 27 19 24 17 16 19 17 17 25 26 33 35 34 39 46
44 40 44 51 50 43 34 34 34 36 37 36 33 24 22 21 21 19 18 19 21 20 23 30 22 22 29 24 21 24 21 21 22 22 14 14 16 20 24 21 26 28 36 37 45
41 35 49 50 41 39 35 35 34 31 36 38 38 36 29 22 20 19 18 18 23 26 21 28 22 17 19 27 29 25 23 21 18 16 24 22 18 23 21 21 24 26 32 38 40
36 40 49 46 35 36 36 36 36 31 33 34 35 34 29 23 19 21 22 25 32 27 23 30 24 17 19 24 27 25 24 26 25 23 20 18 15 22 23 20 20 26 29 35 41
36 34 42 43 40 35 34 34 36 37 35 36 37 38 34 26 26 23 26 34 35 32 30 27 25 18 16 19 25 23 24 24 24 19 18 19 18 19 21 21 21 21 27 34 42
39 32 37 34 36 36 34 33 34 33 36 33 33 36 36 29 27 27 34 35 35 34 33 28 22 21 21 22 27 24 24 24 22 21 19 20 21 22 22 21 21 22 26 35 41
35 36 37 36 36 35 35 32 32 34 34 32 28 31 30 32 28 25 31 32 30 32 31 31 23 25 25 28 27 24 25 25 25 23 22 22 20 23 24 26 26 26 27 30 32
39 42 39 34 35 34 32 32 31 34 35 33 33 33 34 34 33 29 35 33 31 30 30 28 26 24 19 27 25 22 23 22 22 23 23 20 22 26 26 28 30 31 32 32 32
Wind_Speed
8 9 8 8 9 10 11 12 15 17 19 21 21 21 21 20 25 3 7 7 4 5 2 5 4 5 3 4 3 3 2 6 5 5 5 3 3 1 9 9 6 7 4 15 18
9 8 8 8 10 11 12 11 14 15 17 20 21 21 20 21 10 11 9 7 14 10 4 5 6 6 3 3 6 5 5 6 8 5 6 3 3 9 6 10 7 15 19 18 20
9 9 9 9 10 11 12 13 14 14 15 18 19 19 19 20 6 3 1 15 14 9 2 3 5 3 2 2 6 5 5 8 10 9 4 4 3 4 15 5 7 25 20 14 15
10 9 10 10 10 11 12 14 14 15 14 17 18 19 22 3 1 2 9 14 13 8 1 3 4 2 1 3 3 4 12 12 8 6 5 5 5 3 4 3 23 22 23 18 15
11 10 10 10 11 12 12 14 14 14 13 14 15 17 7 4 8 2 9 13 9 9 7 5 4 2 4 4 2 8 11 8 15 11 7 10 7 6 6 19 25 22 21 21 25
12 11 10 10 11 12 12 14 13 13 12 11 12 13 2 6 2 4 12 11 9 8 7 6 4 4 7 7 2 8 10 6 6 10 9 11 7 5 7 21 22 24 21 22 24
13 11 11 11 11 12 13 15 12 13 10 8 8 5 2 16 4 3 9 5 6 9 5 7 4 2 5 9 4 7 2 5 2 9 5 11 4 9 16 19 23 19 21 17 16
15 12 12 11 11 12 13 16 14 13 9 5 5 2 8 5 2 6 6 11 8 11 6 4 4 5 3 7 8 3 3 3 3 9 5 3 0 6 18 21 19 19 22 20 18
16 14 11 10 11 11 14 18 15 14 7 4 2 2 11 11 9 8 15 10 7 4 5 7 2 1 4 3 3 5 4 5 5 7 9 2 6 10 19 15 18 19 22 21 18
18 15 10 9 9 10 14 19 9 4 1 3 2 3 8 2 3 2 9 15 3 1 4 1 3 1 1 1 1 4 3 2 7 7 12 12 11 17 21 15 22 20 17 19 22
18 17 10 8 7 5 8 5 4 2 2 8 4 5 8 11 6 4 6 10 5 2 3 1 2 5 5 7 3 6 2 2 4 7 6 16 14 22 21 17 20 19 22 22 26
15 16 11 7 5 1 1 2 3 1 11 16 21 15 15 1 6 6 13 9 7 7 3 0 5 8 6 3 4 3 6 7 8 3 10 11 9 9 18 21 22 25 24 26 24
18 14 12 6 3 2 3 6 8 6 7 10 9 9 7 13 9 9 10 7 7 9 9 6 4 3 2 5 6 9 6 6 10 3 7 10 4 11 7 5 10 17 22 21 26
16 15 11 9 2 4 4 4 9 8 5 8 6 9 10 9 6 12 10 8 3 14 8 7 7 7 0 5 2 10 2 9 6 2 5 1 6 12 16 22 15 20 18 24 24
16 15 13 17 1 4 4 9 5 1 5 3 6 3 14 16 4 10 10 4 10 8 5 10 5 7 7 14 5 10 14 11 1 2 7 2 2 7 12 21 26 27 25 24 24
16 15 16 7 2 9 9 8 2 4 9 5 9 11 13 11 5 1 9 4 3 9 9 8 3 7 9 10 9 6 2 5 5 2 2 2 5 5 15 33 34 29 24 25 23
17 16 15 10 6 3 4 1 4 8 5 6 8 12 15 11 14 4 6 10 11 6 7 1 3 2 3 4 2 3 3 3 3 2 4 3 1 9 13 22 27 27 27 24 22
18 14 15 9 3 4 3 6 14 10 13 8 4 10 17 12 13 10 6 12 5 4 6 8 5 5 2 4 4 2 5 4 3 3 3 3 6 7 9 13 16 14 20 22 19
17 10 10 12 5 2 5 22 10 9 5 6 4 9 11 11 9 13 12 15 13 14 12 7 7 1 4 5 4 1 2 2 6 1 1 3 6 12 10 6 3 7 10 15 18
12 9 12 13 12 4 14 26 11 12 4 6 11 10 17 14 15 13 13 10 13 16 11 9 2 2 2 2 1 3 8 2 2 2 6 4 5 8 9 6 5 7 12 12 11
11 8 14 17 13 7 26 18 22 22 4 3 4 6 13 14 17 10 9 11 13 16 10 10 6 3 2 7 13 5 4 2 4 5 5 6 5 8 9 5 10 9 12 15 15
11 14 19 25 17 15 30 14 9 24 8 5 5 9 6 14 16 20 21 18 14 16 15 13 9 12 11 4 4 5 6 6 4 5 3 3 10 7 11 8 8 11 9 13 16
15 10 18 25 26 32 14 27 19 14 12 7 7 6 2 9 15 16 16 10 14 16 18 14 5 10 7 3 2 4 5 4 4 3 12 13 9 2 7 10 10 11 13 9 12
12 16 13 23 28 26 29 19 33 16 21 5 4 4 3 4 4 13 10 4 7 4 15 16 7 15 23 13 4 6 14 8 9 9 8 13 15 12 12 14 12 12 9 8 9
8 16 14 30 42 33 29 20 27 23 20 16 8 15 6 3 2 6 6 6 3 9 5 8 10 7 6 6 7 5 8 9 13 12 10 17 13 17 9 10 13 10 2 3 4
13 11 17 6 27 37 26 35 34 31 10 15 25 9 22 18 14 12 9 7 8 6 5 2 7 8 7 2 2 8 11 9 9 7 12 8 9 6 1 6 11 7 11 13 11
18 5 12 20 29 32 47 33 37 25 24 20 27 21 12 19 21 18 7 13 15 18 10 9 12 9 12 3 0 11 15 17 11 9 8 12 10 12 9 10 13 17 16 14 12
Wind_Direction
288 292 290 301 308 311 315 319 324 327 328 327 325 323 320 317 315 288 258 214 177 192 131 138 106 132 134 159 128 133 75 248 246 240 276 159 153 95 87 84 41 12 72 126 128
286 286 285 296 302 305 310 318 323 324 330 326 323 322 322 323 307 275 243 203 216 160 159 162 135 158 167 182 153 166 197 239 233 243 248 180 232 135 90 93 66 90 101 118 135
279 282 282 290 296 301 307 314 316 316 326 322 324 324 323 325 307 264 89 201 198 161 103 131 88 83 348 236 206 189 232 236 257 246 222 168 333 43 120 115 168 134 130 125 135
272 276 280 285 294 299 305 312 316 322 329 328 327 329 326 314 288 320 350 179 182 179 163 129 80 105 252 249 255 253 248 230 264 229 159 141 128 101 151 160 141 140 143 149 125
259 269 275 280 290 298 304 309 316 319 325 328 332 335 356 308 257 315 90 143 142 153 176 160 135 200 277 251 251 235 279 288 221 185 105 120 105 88 68 124 127 137 151 157 138
251 261 269 276 284 295 301 304 315 314 322 330 336 341 4 273 312 131 130 147 154 164 190 206 194 206 283 265 217 273 302 260 197 166 148 127 111 107 97 135 135 151 168 174 161
252 258 266 274 281 294 301 302 310 305 314 328 338 358 290 247 71 90 162 214 199 186 186 219 215 346 301 300 275 295 38 55 159 165 128 124 89 91 148 149 153 160 176 181 166
255 247 260 269 280 292 300 299 303 295 301 315 349 62 258 250 270 262 208 278 226 213 265 291 257 269 236 303 329 48 55 77 170 173 147 90 102 128 164 167 168 163 181 194 194
266 251 246 264 274 291 300 298 292 284 281 262 96 85 269 314 256 244 190 224 233 216 237 283 269 316 345 313 355 13 158 164 174 205 148 191 158 193 173 179 172 176 177 190 205
270 254 247 254 272 297 307 303 289 291 117 178 248 317 268 260 301 253 197 196 223 344 286 183 52 295 348 73 48 316 347 95 158 180 171 191 169 174 185 196 187 183 177 174 185
271 262 245 249 261 303 338 353 310 283 209 222 175 257 281 324 299 233 171 157 195 139 213 20 178 225 240 219 200 287 46 94 188 184 184 208 165 168 187 195 190 187 186 186 190
277 275 256 231 238 259 18 270 266 262 302 246 245 246 263 342 289 286 147 172 173 220 207 300 247 236 268 232 221 19 356 355 322 225 187 196 186 187 182 192 193 192 194 192 194
267 272 266 204 217 204 214 248 291 353 271 280 208 220 214 170 217 252 177 160 176 202 225 211 242 180 281 169 29 332 314 294 304 20 61 116 91 203 220 223 206 209 205 196 195
259 268 239 163 229 184 236 234 341 172 298 273 219 241 169 168 237 215 196 173 190 225 220 247 272 267 249 217 43 303 21 306 288 210 149 94 213 233 219 222 228 219 206 203 199
247 255 203 174 243 216 156 324 167 218 298 218 186 162 158 172 149 213 171 146 217 210 156 224 223 218 220 204 155 254 310 306 328 137 133 109 154 237 199 229 236 231 218 215 207
235 247 190 214 266 256 303 316 147 94 242 283 166 165 157 191 199 129 168 181 211 212 210 235 206 173 207 231 224 263 298 16 46 68 205 214 186 242 193 216 225 232 228 218 203
227 239 181 164 220 300 298 226 167 205 314 224 188 170 177 179 211 195 156 173 197 195 188 196 232 38 56 258 253 158 137 279 223 204 233 58 164 252 247 226 224 223 225 224 192
223 230 215 201 191 355 194 217 216 203 243 297 210 161 190 165 210 203 198 220 228 184 172 194 240 170 164 183 163 231 192 204 250 215 245 11 243 261 274 284 281 241 220 220 203
211 224 220 208 188 86 198 210 216 206 218 243 145 172 206 195 185 189 201 215 215 188 208 175 233 186 202 200 142 152 187 162 112 48 296 237 280 294 308 312 119 176 180 205 202
192 218 218 171 164 141 218 225 218 222 346 343 208 189 194 194 191 182 191 216 224 201 178 198 200 209 319 336 6 168 164 175 62 226 236 250 265 251 310 311 130 159 204 217 197
180 206 181 147 151 175 214 212 222 246 310 306 322 222 211 195 197 192 197 226 221 209 177 155 177 221 140 203 200 192 196 117 129 155 241 249 243 220 233 317 294 288 209 213 206
175 204 162 150 186 205 221 200 212 234 234 276 313 258 243 205 204 209 218 219 191 169 187 190 174 221 227 252 269 195 208 158 201 217 189 235 259 240 235 273 287 276 277 215 215
185 185 176 171 199 210 208 213 224 220 222 212 243 249 244 218 207 211 211 216 169 174 179 170 188 213 255 291 179 232 218 125 142 106 215 235 252 264 247 244 255 260 262 260 220
175 179 180 191 217 208 202 202 216 220 245 262 272 284 276 261 204 198 183 161 163 245 178 147 151 203 223 218 180 219 250 211 202 226 232 228 251 258 249 234 247 256 273 270 223
210 202 185 192 210 210 200 201 205 213 209 208 266 229 227 310 193 189 157 138 107 146 165 172 182 179 239 187 186 215 237 195 213 226 221 259 239 257 282 272 282 212 213 44 141
197 199 175 203 202 200 206 211 206 204 194 205 224 209 230 229 233 197 168 173 174 175 170 196 163 159 179 155 205 222 227 228 232 247 246 255 267 254 357 89 81 122 98 89 85
212 294 191 209 189 190 211 208 211 199 223 233 211 225 236 233 238 259 197 181 179 167 172 163 153 167 220 169 287 254 227 238 240 225 217 230 240 158 124 91 89 98 96 93 75